Flag for U.S.A. Weather past 2 weeks in Arden-Arcade, California, U.S.A.

Now
63 °F

Clear.


Feels Like: 63 °F
Forecast: 54 / 83 °F
Wind: 5 mph from South

Location: Mather Field

Current Time: Apr 27, 2015 at 11:54:15 PM

Latest Report: Apr 27, 2015 at 10:50 PM


Visibility: 10 mi

Pressure: 29.94 "Hg

Humidity: 68%

Dew point: 52 °F

Location of Arden-ArcadeLocation

Historic Weather in Arden-Arcade — Graph

°F

Arden-Arcade temperature yesterday

Maximum temperature yesterday: 75 °F (at 2:55 PM)
Minimum temperature yesterday: 45 °F (at 4:45 AM)
Average temperature yesterday: 63 °F

Past Weeks' High & Low Weather Summary

 TemperatureHumidityPressure
High84 °F (Apr 18, 3:45 PM)100% (Apr 21, 2:55 AM)30.34 "Hg (Apr 21, 2:55 AM)
Low45 °F (Apr 13, 6:45 AM)13% (Apr 16, 2:48 PM)29.75 "Hg (Apr 20, 5:45 PM)
Average62 °F56%29.95 "Hg
* Reported Apr 13 4:55 AM — Apr 27 10:50 PM, Arden-Arcade, Weather by CustomWeather, © 2015

Note: Actual official high and low records may vary slightly from our data, if they occured in-between our weather recording intervals... More about our weather records

Advertising

Arden-Arcade weather history for previous 24 hours

 ConditionsComfort  
Time TempWeatherWind HumidityBarometerVisibility
10:50 PM
Mon, Apr 27
63 °FClear.5 mph68%29.94 "Hg10 mi
9:50 PM66 °FClear.6 mph68%29.93 "Hg10 mi
8:55 PM66 °FPassing clouds.7 mph68%29.92 "Hg10 mi
7:55 PM72 °FPassing clouds.5 mph57%29.90 "Hg10 mi
6:47 PM77 °FPassing clouds.5 mph47%29.89 "Hg10 mi
5:54 PM81 °FPassing clouds.6 mph37%29.90 "Hg10 mi
4:50 PM82 °FPassing clouds.7 mph32%29.91 "Hg10 mi
3:45 PM82 °FPassing clouds.3 mph30%29.93 "Hg10 mi
2:55 PM81 °FPassing clouds.3 mph34%29.95 "Hg10 mi
1:50 PM79 °FPassing clouds.5 mph39%29.97 "Hg10 mi
12:55 PM75 °FPassing clouds.7 mph47%29.99 "Hg10 mi
10:51 AM70 °FSunny.8 mph53%30.02 "Hg10 mi
9:50 AM66 °FSunny.7 mph56%30.03 "Hg10 mi
8:45 AM63 °FPassing clouds.No wind64%30.03 "Hg10 mi
7:47 AM57 °FSunny.3 mph77%30.03 "Hg10 mi
6:48 AM48 °FClear.7 mph94%30.01 "Hg10 mi
5:55 AM54 °FClear.3 mph82%29.99 "Hg10 mi
4:55 AM54 °FClear.3 mph82%29.99 "Hg10 mi
Weather by CustomWeather, © 2015

See weather overviewHow to use our weather pages